K1ABC Weather Reports


time (UTC)temp
C
wind
direction
speed
KPH
gust
KPH
rain 1hr
cm
rain 24hr
cm
rain mn
cm
humidity
%
barometer
mb
20260505022213 16 221 3.2 12.9 0.00 0.00 0.00 49 1009.0
20260505022010 16 234 4.8 12.9 0.00 0.00 0.00 49 1009.0
20260505021808 16 242 4.8 12.9 0.00 0.00 0.00 49 1009.0
20260505021608 16 228 3.2 12.9 0.00 0.00 0.00 49 1009.0
20260505021404 16 219 4.8 12.9 0.00 0.00 0.00 48 1009.0
20260505021156 17 241 4.8 14.5 0.00 0.00 0.00 48 1009.0
20260505020954 17 221 4.8 14.5 0.00 0.00 0.00 48 1008.9
20260505020749 17 219 6.4 14.5 0.00 0.00 0.00 48 1008.9
20260505020545 17 229 6.4 14.5 0.00 0.00 0.00 48 1008.9
20260505020346 17 234 6.4 14.5 0.00 0.00 0.00 47 1008.8
20260505020146 17 215 6.4 14.5 0.00 0.00 0.00 47 1008.8
20260505015940 17 229 6.4 14.5 0.00 0.00 0.00 47 1008.8
20260505015732 17 251 6.4 14.5 0.00 0.00 0.00 47 1008.8
20260505015531 17 225 6.4 14.5 0.00 0.00 0.00 47 1008.8
20260505015327 17 207 6.4 14.5 0.00 0.00 0.00 47 1008.8
20260505015128 17 240 6.4 12.9 0.00 0.00 0.00 47 1008.7
20260505014928 17 237 6.4 16.1 0.00 0.00 0.00 46 1008.7
20260505014729 17 214 4.8 16.1 0.00 0.00 0.00 47 1008.7
20260505014526 17 242 4.8 16.1 0.00 0.00 0.00 46 1008.6
20260505014316 17 240 6.4 16.1 0.00 0.00 0.00 46 1008.6
20260505014117 17 223 4.8 16.1 0.00 0.00 0.00 46 1008.6
20260505013914 17 227 6.4 17.7 0.00 0.00 0.00 46 1008.6
20260505013714 17 229 6.4 17.7 0.00 0.00 0.00 46 1008.5
20260505013503 17 230 6.4 17.7 0.00 0.00 0.00 46 1008.5
20260505013253 17 230 6.4 17.7 0.00 0.00 0.00 46 1008.4
20260505012936 17 223 6.4 17.7 0.00 0.00 0.00 45 1008.4
20260505012736 17 226 6.4 17.7 0.00 0.00 0.00 45 1008.3
20260505012535 17 220 6.4 17.7 0.00 0.00 0.00 45 1008.3
20260505012334 17 226 6.4 17.7 0.00 0.00 0.00 45 1008.2
20260505012135 17 223 4.8 17.7 0.00 0.00 0.00 45 1008.1
20260505011927 17 219 4.8 11.3 0.00 0.00 0.00 45 1008.2
20260505011725 18 232 6.4 11.3 0.00 0.00 0.00 45 1008.2
20260505011359 18 168 6.4 14.5 0.00 0.00 0.00 45 1008.1
20260505011155 18 221 6.4 14.5 0.00 0.00 0.00 44 1008.0
20260505010839 18 227 6.4 14.5 0.00 0.00 0.00 43 1007.9
20260505010515 18 234 6.4 22.5 0.00 0.00 0.00 43 1007.8
20260505010310 18 193 6.4 22.5 0.00 0.00 0.00 43 1007.7
20260505005901 18 225 8.0 22.5 0.00 0.00 0.00 42 1007.7
20260505005653 18 220 8.0 22.5 0.00 0.00 0.00 43 1007.7
20260505005454 18 244 8.0 22.5 0.00 0.00 0.00 42 1007.6
20260505005246 18 254 8.0 22.5 0.00 0.00 0.00 42 1007.6
20260505005039 18 169 6.4 22.5 0.00 0.00 0.00 42 1007.5
20260505004834 18 230 6.4 22.5 0.00 0.00 0.00 41 1007.4
20260505004511 18 227 4.8 14.5 0.00 0.00 0.00 41 1007.4
20260505004301 18 221 3.2 14.5 0.00 0.00 0.00 42 1007.4
20260505004057 18 241 1.6 14.5 0.00 0.00 0.00 40 1007.3
20260505003850 18 255 0.0 11.3 0.00 0.00 0.00 40 1007.2
20260505003646 18 239 0.0 3.2 0.00 0.00 0.00 41 1007.1
20260505003439 18 239 0.0 1.6 0.00 0.00 0.00 40 1007.0
20260505003234 18 239 0.0 0.0 0.00 0.00 0.00 40 1007.0
20260505003034 18 239 0.0 0.0 0.00 0.00 0.00 40 1006.9
20260505002718 18 239 0.0 0.0 0.00 0.00 0.00 40 1006.9
20260505002403 18 239 0.0 0.0 0.00 0.00 0.00 40 1006.8
20260505002155 18 239 0.0 3.2 0.00 0.00 0.00 40 1006.8
20260505001954 18 239 0.0 3.2 0.00 0.00 0.00 40 1006.7
20260505001755 18 239 1.6 3.2 0.00 0.00 0.00 40 1006.6
20260505001546 18 239 1.6 3.2 0.00 0.00 0.00 39 1006.6
20260505001342 18 239 1.6 3.2 0.00 0.00 0.00 39 1006.6
20260505001139 18 239 1.6 3.2 0.00 0.00 0.00 39 1006.5
20260505000933 18 239 1.6 3.2 0.00 0.00 0.00 38 1006.4
20260505000618 18 239 1.6 3.2 0.00 0.00 0.00 39 1006.4
20260505000420 18 239 1.6 3.2 0.00 0.00 0.00 39 1006.5
20260505000211 18 239 0.0 3.2 0.00 0.00 0.00 39 1006.4
20260505000009 18 239 0.0 3.2 0.00 0.00 0.00 39 1006.4
20260504235805 19 239 0.0 3.2 0.00 0.00 0.00 39 1006.4
20260504235603 19 239 0.0 3.2 0.00 0.00 0.00 39 1006.3
20260504235402 19 239 0.0 3.2 0.00 0.00 0.00 38 1006.3
20260504235158 19 239 0.0 3.2 0.00 0.00 0.00 38 1006.3
20260504234954 19 239 0.0 3.2 0.00 0.00 0.00 37 1006.3
20260504234754 20 239 0.0 3.2 0.00 0.00 0.00 37 1006.3
20260504234554 20 239 0.0 1.6 0.00 0.00 0.00 36 1006.2
20260504234349 20 239 0.0 1.6 0.00 0.00 0.00 36 1006.2
20260504234033 20 239 0.0 1.6 0.00 0.00 0.00 36 1006.2
20260504233833 20 239 0.0 3.2 0.00 0.00 0.00 36 1006.1
20260504233627 20 239 0.0 3.2 0.00 0.00 0.00 36 1006.1
20260504233423 20 239 0.0 3.2 0.00 0.00 0.00 35 1006.1
20260504233218 20 239 0.0 3.2 0.00 0.00 0.00 35 1006.1
20260504233008 20 239 0.0 3.2 0.00 0.00 0.00 34 1006.0
20260504232800 20 239 0.0 4.8 0.00 0.00 0.00 34 1006.1
20260504232550 20 239 1.6 4.8 0.00 0.00 0.00 34 1006.0
20260504232341 20 239 1.6 4.8 0.00 0.00 0.00 34 1006.0
20260504232138 20 239 1.6 4.8 0.00 0.00 0.00 34 1005.9
20260504231937 21 239 1.6 4.8 0.00 0.00 0.00 34 1005.9
20260504231736 21 239 1.6 6.4 0.00 0.00 0.00 34 1005.9
20260504231421 21 239 3.2 6.4 0.00 0.00 0.00 33 1005.8
20260504231055 21 239 3.2 6.4 0.00 0.00 0.00 33 1005.8
20260504230853 21 239 3.2 6.4 0.00 0.00 0.00 33 1005.7
20260504230645 21 219 3.2 8.0 0.00 0.00 0.00 32 1005.7
20260504230442 21 223 3.2 8.0 0.00 0.00 0.00 33 1005.7
20260504230241 21 232 1.6 8.0 0.00 0.00 0.00 32 1005.7
20260504230041 21 240 1.6 8.0 0.00 0.00 0.00 32 1005.7
20260504225830 21 238 3.2 8.0 0.00 0.00 0.00 32 1005.6
20260504225623 21 224 3.2 8.0 0.00 0.00 0.00 32 1005.6
20260504225413 21 224 3.2 8.0 0.00 0.00 0.00 32 1005.6
20260504225205 21 235 3.2 8.0 0.00 0.00 0.00 32 1005.6
20260504225002 21 244 3.2 8.0 0.00 0.00 0.00 32 1005.6
20260504224756 21 242 3.2 6.4 0.00 0.00 0.00 33 1005.6
20260504224548 21 230 3.2 9.7 0.00 0.00 0.00 32 1005.5
20260504224348 21 215 3.2 9.7 0.00 0.00 0.00 32 1005.5
20260504224145 21 239 3.2 9.7 0.00 0.00 0.00 31 1005.5
20260504223826 21 249 3.2 9.7 0.00 0.00 0.00 32 1005.4
20260504223616 21 249 3.2 11.3 0.00 0.00 0.00 31 1005.4
20260504223411 21 249 4.8 11.3 0.00 0.00 0.00 32 1005.4
20260504223201 21 234 4.8 11.3 0.00 0.00 0.00 32 1005.3
20260504222959 21 306 3.2 11.3 0.00 0.00 0.00 32 1005.4
20260504222755 21 242 3.2 11.3 0.00 0.00 0.00 31 1005.4
20260504222554 21 278 3.2 12.9 0.00 0.00 0.00 32 1005.4
20260504222353 21 250 3.2 12.9 0.00 0.00 0.00 32 1005.4
20260504222029 21 236 3.2 12.9 0.00 0.00 0.00 32 1005.4
20260504221825 21 250 3.2 12.9 0.00 0.00 0.00 32 1005.3
20260504221625 21 242 4.8 12.9 0.00 0.00 0.00 31 1005.3
20260504221310 21 249 4.8 12.9 0.00 0.00 0.00 31 1005.4
20260504221101 21 207 4.8 12.9 0.00 0.00 0.00 31 1005.4
20260504220859 21 225 4.8 12.9 0.00 0.00 0.00 31 1005.4
20260504220655 21 217 3.2 9.7 0.00 0.00 0.00 31 1005.4
20260504220333 21 246 3.2 9.7 0.00 0.00 0.00 31 1005.4
20260504220008 21 150 1.6 9.7 0.00 0.00 0.00 30 1005.4
20260504215805 21 268 1.6 9.7 0.00 0.00 0.00 31 1005.3
20260504215601 21 311 1.6 16.1 0.00 0.00 0.00 32 1005.4
20260504215355 21 281 3.2 16.1 0.00 0.00 0.00 31 1005.4
20260504215152 21 259 3.2 16.1 0.00 0.00 0.00 30 1005.3
20260504214953 21 271 3.2 16.1 0.00 0.00 0.00 30 1005.2
20260504214752 22 240 3.2 16.1 0.00 0.00 0.00 29 1005.3
20260504214554 22 225 4.8 16.1 0.00 0.00 0.00 32 1005.2
20260504214352 22 261 4.8 16.1 0.00 0.00 0.00 29 1005.2
20260504214147 22 253 4.8 16.1 0.00 0.00 0.00 30 1005.2
20260504213947 22 240 6.4 16.1 0.00 0.00 0.00 31 1005.2
20260504213747 22 26 6.4 16.1 0.00 0.00 0.00 30 1005.3
20260504213542 22 253 6.4 16.1 0.00 0.00 0.00 31 1005.3
20260504213334 22 211 6.4 16.1 0.00 0.00 0.00 30 1005.2
20260504213129 22 244 8.0 16.1 0.00 0.00 0.00 29 1005.4
20260504212929 22 254 6.4 17.7 0.00 0.00 0.00 29 1005.3
20260504212723 22 242 6.4 17.7 0.00 0.00 0.00 28 1005.1
20260504212524 23 242 4.8 17.7 0.00 0.00 0.00 28 1005.3
20260504212314 23 236 4.8 17.7 0.00 0.00 0.00 28 1005.3
20260504212109 23 196 4.8 17.7 0.00 0.00 0.00 29 1005.3
20260504211910 23 263 4.8 17.7 0.00 0.00 0.00 29 1005.2
20260504211548 23 203 4.8 17.7 0.00 0.00 0.00 28 1005.4
20260504211349 23 229 4.8 17.7 0.00 0.00 0.00 29 1005.3
20260504211148 23 242 6.4 17.7 0.00 0.00 0.00 28 1005.4
20260504210948 23 190 6.4 12.9 0.00 0.00 0.00 29 1005.4
20260504210746 23 259 6.4 12.9 0.00 0.00 0.00 29 1005.4
20260504210538 23 251 4.8 16.1 0.00 0.00 0.00 29 1005.3
20260504210336 23 227 4.8 16.1 0.00 0.00 0.00 30 1005.3
20260504210136 23 217 4.8 16.1 0.00 0.00 0.00 29 1005.3
20260504205932 23 241 4.8 16.1 0.00 0.03 0.00 30 1005.3
20260504205725 22 244 6.4 16.1 0.00 0.03 0.00 28 1005.3
20260504205408 22 293 6.4 16.1 0.00 0.03 0.00 29 1005.2
20260504205209 22 261 6.4 16.1 0.00 0.03 0.00 29 1005.3
20260504205006 22 250 6.4 16.1 0.00 0.03 0.00 29 1005.3
20260504204757 22 251 4.8 16.1 0.00 0.03 0.00 30 1005.3
20260504204558 22 229 4.8 12.9 0.00 0.03 0.00 29 1005.3
20260504204243 22 231 6.4 12.9 0.00 0.03 0.00 29 1005.3
20260504204041 23 221 6.4 12.9 0.00 0.03 0.00 30 1005.3
20260504203833 23 248 4.8 12.9 0.00 0.03 0.00 27 1005.3
20260504203633 23 247 4.8 11.3 0.00 0.03 0.00 28 1005.3
20260504203428 23 229 3.2 11.3 0.00 0.03 0.00 29 1005.3
20260504203228 23 228 3.2 11.3 0.00 0.03 0.00 29 1005.2
20260504203025 23 239 3.2 22.5 0.00 0.03 0.00 29 1005.3
20260504202818 22 252 3.2 22.5 0.00 0.03 0.00 29 1005.3
20260504202610 22 235 4.8 22.5 0.00 0.03 0.00 29 1005.3
20260504202250 22 248 6.4 22.5 0.00 0.03 0.00 30 1005.3
20260504202049 22 225 6.4 22.5 0.00 0.03 0.00 28 1005.3
20260504201724 22 229 6.4 22.5 0.00 0.03 0.00 29 1005.3
20260504201519 23 218 6.4 22.5 0.00 0.03 0.00 29 1005.4
20260504201315 23 91 6.4 22.5 0.00 0.03 0.00 28 1005.4
20260504201109 23 238 4.8 14.5 0.00 0.03 0.00 29 1005.3
20260504200858 23 217 6.4 17.7 0.00 0.03 0.00 28 1005.3
20260504200651 23 246 6.4 17.7 0.00 0.03 0.00 29 1005.3
20260504200445 22 217 6.4 17.7 0.00 0.03 0.00 27 1005.3
20260504200245 23 236 8.0 17.7 0.00 0.03 0.00 27 1005.4
20260504200043 23 312 8.0 17.7 0.00 0.03 0.00 27 1005.4
20260504195834 23 227 6.4 19.3 0.00 0.03 0.00 29 1005.3
20260504195632 23 232 6.4 19.3 0.00 0.03 0.00 28 1005.4
20260504195427 23 236 6.4 19.3 0.00 0.03 0.00 28 1005.4
20260504195218 23 237 6.4 19.3 0.00 0.03 0.00 27 1005.3
20260504195010 23 221 8.0 19.3 0.00 0.03 0.00 28 1005.4
20260504194801 23 237 8.0 19.3 0.00 0.03 0.00 28 1005.4
20260504194601 23 249 8.0 19.3 0.00 0.03 0.00 27 1005.3
20260504194356 23 252 8.0 19.3 0.00 0.03 0.00 28 1005.4
20260504194154 23 227 8.0 19.3 0.00 0.03 0.00 29 1005.4
20260504193951 23 259 8.0 19.3 0.00 0.03 0.00 27 1005.4
20260504193749 23 222 8.0 16.1 0.00 0.03 0.00 27 1005.4
20260504193426 23 270 6.4 16.1 0.00 0.03 0.00 28 1005.4
20260504193222 23 241 8.0 16.1 0.00 0.03 0.00 29 1005.3
20260504192904 22 240 8.0 17.7 0.00 0.03 0.00 29 1005.4
20260504192656 22 243 9.7 17.7 0.00 0.03 0.00 30 1005.4
20260504192453 22 251 9.7 17.7 0.00 0.03 0.00 28 1005.3
20260504192249 22 253 8.0 17.7 0.00 0.03 0.00 29 1005.3
20260504192050 22 203 8.0 17.7 0.00 0.03 0.00 28 1005.4
20260504191724 22 223 6.4 17.7 0.00 0.03 0.00 28 1005.5
20260504191402 22 250 8.0 17.7 0.00 0.03 0.00 29 1005.4
20260504191155 22 225 6.4 17.7 0.00 0.03 0.00 30 1005.5
20260504190946 22 235 6.4 19.3 0.00 0.03 0.00 29 1005.4
20260504190747 22 229 6.4 19.3 0.00 0.03 0.00 30 1005.6
20260504190540 22 183 6.4 19.3 0.00 0.03 0.00 29 1005.6
20260504190336 22 231 4.8 19.3 0.00 0.03 0.00 28 1005.7
20260504190018 22 266 6.4 19.3 0.00 0.03 0.00 32 1005.7
20260504185657 22 248 6.4 19.3 0.00 0.03 0.00 29 1005.7
20260504185457 21 225 8.0 19.3 0.00 0.03 0.00 28 1005.7
20260504185252 22 228 8.0 19.3 0.00 0.03 0.00 30 1005.8
20260504185048 22 229 8.0 19.3 0.00 0.03 0.00 28 1005.7
20260504184842 22 214 9.7 19.3 0.00 0.03 0.00 28 1005.7
20260504184638 22 241 9.7 19.3 0.00 0.03 0.00 30 1005.6
20260504184439 21 208 9.7 19.3 0.00 0.03 0.00 31 1005.7
20260504183958 21 244 8.0 12.9 0.00 0.03 0.00 29 1005.8
20260504181848 22 226 6.4 25.7 0.00 0.00 0.00 27 1006.0
20260504181646 22 203 6.4 24.1 0.00 0.00 0.00 29 1005.9
20260504181440 22 217 6.4 24.1 0.00 0.00 0.00 30 1006.0
20260504181235 22 187 8.0 24.1 0.00 0.00 0.00 32 1005.9
20260504181029 22 272 9.7 24.1 0.00 0.00 0.00 29 1006.0
20260504180824 22 254 9.7 24.1 0.00 0.00 0.00 29 1006.0
20260504180619 22 251 9.7 25.7 0.00 0.00 0.00 30 1005.9
20260504180411 22 232 9.7 25.7 0.00 0.00 0.00 28 1005.9
20260504180204 22 242 9.7 25.7 0.00 0.00 0.00 29 1005.8
20260504180000 22 213 9.7 25.7 0.00 0.00 0.00 29 1005.9
20260504175758 22 236 9.7 25.7 0.00 0.00 0.00 30 1006.0
20260504175600 22 213 9.7 25.7 0.00 0.00 0.00 28 1006.0
20260504175357 22 234 9.7 25.7 0.00 0.00 0.00 28 1006.1
20260504175150 22 244 9.7 25.7 0.00 0.00 0.00 30 1006.0
20260504174943 22 224 9.7 25.7 0.00 0.00 0.00 29 1006.0
20260504174739 22 247 9.7 25.7 0.00 0.00 0.00 29 1006.1
20260504174540 22 233 8.0 22.5 0.00 0.00 0.00 28 1005.9
20260504174330 22 224 8.0 22.5 0.00 0.00 0.00 29 1006.2
20260504174016 22 241 8.0 22.5 0.00 0.00 0.00 29 1006.2
20260504173813 22 186 9.7 22.5 0.00 0.00 0.00 29 1006.1
20260504173449 22 251 9.7 22.5 0.00 0.00 0.00 31 1006.2
20260504173239 21 219 9.7 22.5 0.00 0.00 0.00 30 1006.0
20260504173032 21 244 9.7 22.5 0.00 0.00 0.00 32 1006.2
20260504172823 21 281 9.7 27.4 0.00 0.00 0.00 30 1006.1
20260504172501 21 183 9.7 27.4 0.00 0.00 0.00 30 1006.2
20260504172253 21 245 11.3 27.4 0.00 0.00 0.00 31 1006.2
20260504172047 21 229 11.3 27.4 0.00 0.00 0.00 30 1006.2
20260504171843 21 198 11.3 27.4 0.00 0.00 0.00 30 1006.2
20260504171636 21 224 11.3 27.4 0.00 0.00 0.00 32 1006.2
20260504171428 21 226 11.3 27.4 0.00 0.00 0.00 30 1006.2
20260504171219 21 234 11.3 27.4 0.00 0.00 0.00 31 1006.3
20260504171014 21 226 11.3 27.4 0.00 0.00 0.00 31 1006.2
20260504170807 21 251 11.3 27.4 0.00 0.00 0.00 32 1006.3
20260504170557 21 235 9.7 27.4 0.00 0.00 0.00 31 1006.4
20260504170353 21 246 9.7 27.4 0.00 0.00 0.00 32 1006.4
20260504160348 20 255 8.0 27.4 0.00 0.00 0.00 31 1006.5
20260504160145 20 217 8.0 24.1 0.00 0.00 0.00 32 1006.7
20260504151113 19 227 6.4 19.3 0.00 0.00 0.00 39 1007.4
20260504150755 18 227 8.0 19.3 0.00 0.00 0.00 37 1007.3
20260504150545 18 230 8.0 19.3 0.00 0.00 0.00 37 1007.3
20260504150335 18 224 6.4 19.3 0.00 0.00 0.00 37 1007.4
20260504141222 17 213 4.8 14.5 0.00 0.00 0.00 42 1008.2
20260504141014 17 254 4.8 16.1 0.00 0.00 0.00 42 1008.2
20260504140813 17 252 4.8 16.1 0.00 0.05 0.00 41 1008.2
20260504140614 17 248 6.4 16.1 0.00 0.05 0.00 41 1008.2
20260504140258 17 201 4.8 16.1 0.00 0.05 0.00 41 1008.3
20260504130720 14 240 3.2 14.5 0.00 0.13 0.00 48 1009.0
20260504130515 14 225 4.8 14.5 0.00 0.13 0.00 49 1009.0
20260504130200 14 253 4.8 14.5 0.00 0.13 0.00 47 1009.0
20260504120147 10 232 1.6 8.0 0.00 0.13 0.00 57 1009.7
20260504110533 8 229 3.2 8.0 0.00 0.13 0.00 60 1009.8
20260504110323 8 215 3.2 8.0 0.00 0.13 0.00 60 1009.8
20260504110118 8 224 3.2 8.0 0.00 0.13 0.00 60 1009.8
20260504100604 7 222 3.2 4.8 0.00 0.13 0.00 61 1009.9
20260504100405 7 222 3.2 4.8 0.00 0.13 0.00 61 1009.9
20260504081802 7 249 1.6 4.8 0.00 0.13 0.00 60 1009.7
20260504081555 7 249 1.6 4.8 0.00 0.13 0.00 60 1009.6
20260504081352 7 249 1.6 4.8 0.00 0.13 0.00 61 1009.7
20260504081152 7 249 1.6 4.8 0.00 0.13 0.00 61 1009.7
20260504080949 7 229 1.6 3.2 0.00 0.13 0.00 60 1009.7
20260504080747 7 234 1.6 3.2 0.00 0.13 0.00 61 1009.7
20260504080544 7 234 1.6 3.2 0.00 0.13 0.00 60 1009.6
20260504080343 7 234 1.6 3.2 0.00 0.13 0.00 60 1009.6
20260504080134 7 234 1.6 3.2 0.00 0.13 0.00 61 1009.6
20260504070335 6 215 1.6 3.2 0.00 0.13 0.00 62 1009.5
20260504070129 6 215 1.6 3.2 0.00 0.13 0.00 62 1009.4
20260504060133 5 299 1.6 3.2 0.00 0.13 0.00 64 1009.6
20260504050729 5 299 1.6 3.2 0.00 0.15 0.00 65 1009.4
20260504050523 5 299 1.6 3.2 0.00 0.15 0.00 65 1009.5
20260504050322 5 299 1.6 3.2 0.00 0.15 0.00 65 1009.5
20260504050113 5 299 1.6 3.2 0.00 0.15 0.00 65 1009.5
20260504045910 5 299 1.6 3.2 0.00 0.15 0.00 65 1009.5
20260504045703 5 299 1.6 3.2 0.00 0.15 0.00 66 1009.5
20260504045459 5 299 1.6 3.2 0.00 0.15 0.00 65 1009.5
20260504045256 5 299 1.6 3.2 0.00 0.15 0.00 66 1009.4
20260504045046 5 299 1.6 3.2 0.00 0.15 0.00 66 1009.4
20260504044838 5 299 1.6 3.2 0.00 0.15 0.00 66 1009.4
20260504044516 4 299 0.0 3.2 0.00 0.15 0.00 66 1009.4
20260504044310 4 299 0.0 3.2 0.00 0.15 0.00 67 1009.4
20260504044111 4 299 0.0 3.2 0.00 0.15 0.00 67 1009.4
20260504043904 4 299 0.0 0.0 0.00 0.15 0.00 67 1009.4
20260504043702 4 299 0.0 0.0 0.00 0.15 0.00 68 1009.4
20260504043348 4 299 0.0 0.0 0.00 0.15 0.00 67 1009.4
20260504043143 4 299 0.0 0.0 0.00 0.15 0.00 67 1009.4
20260504042936 4 299 0.0 0.0 0.00 0.15 0.00 67 1009.4
20260504042622 5 299 0.0 0.0 0.00 0.15 0.00 66 1009.4
20260504042420 5 299 0.0 0.0 0.00 0.15 0.00 66 1009.4
20260504042220 5 299 0.0 0.0 0.00 0.15 0.00 67 1009.4
20260504042019 5 299 0.0 0.0 0.00 0.15 0.00 67 1009.4
20260504041810 5 299 0.0 0.0 0.00 0.15 0.00 67 1009.4
20260504041611 5 299 0.0 0.0 0.00 0.15 0.00 66 1009.4
20260504041407 5 299 0.0 0.0 0.00 0.15 0.00 65 1009.3
20260504041202 5 299 0.0 0.0 0.00 0.15 0.00 65 1009.3
20260504040954 5 299 0.0 0.0 0.00 0.15 0.00 65 1009.3
20260504040745 5 299 0.0 0.0 0.00 0.15 0.00 65 1009.3
20260504040542 5 299 0.0 0.0 0.00 0.15 0.00 65 1009.3
20260504040340 5 299 0.0 1.6 0.00 0.15 0.00 65 1009.3
20260504040134 5 299 0.0 1.6 0.00 0.15 0.00 66 1009.3
20260504035816 5 299 0.0 1.6 0.00 0.15 0.15 66 1009.2
20260504035610 5 299 0.0 1.6 0.00 0.15 0.15 66 1009.2
20260504035407 5 299 0.0 3.2 0.00 0.15 0.15 66 1009.2
20260504035200 5 299 0.0 3.2 0.00 0.15 0.15 66 1009.2
20260504034957 5 299 0.0 3.2 0.00 0.15 0.15 66 1009.2
20260504034749 5 299 0.0 3.2 0.00 0.15 0.15 67 1009.2
20260504034547 5 299 1.6 3.2 0.00 0.15 0.15 67 1009.1
20260504034337 5 299 1.6 3.2 0.00 0.15 0.15 67 1009.1
20260504034131 5 299 1.6 3.2 0.00 0.15 0.15 67 1009.1
20260504033929 5 299 1.6 3.2 0.00 0.15 0.15 67 1009.1
20260504033729 5 299 1.6 3.2 0.00 0.15 0.15 67 1009.2
20260504033526 5 299 1.6 1.6 0.00 0.15 0.15 67 1009.2
20260504033319 5 299 1.6 1.6 0.00 0.15 0.15 67 1009.2
20260504033110 5 299 1.6 3.2 0.00 0.15 0.15 67 1009.2
20260504032910 5 299 1.6 3.2 0.00 0.15 0.15 66 1009.2
20260504032706 5 299 1.6 3.2 0.00 0.15 0.15 67 1009.2
20260504032502 5 299 1.6 3.2 0.00 0.15 0.15 65 1009.2
20260504032143 5 299 1.6 3.2 0.00 0.15 0.15 65 1009.2
20260504031937 5 299 1.6 3.2 0.00 0.15 0.15 65 1009.2
20260504031737 5 299 0.0 3.2 0.00 0.15 0.15 65 1009.2
20260504031536 5 299 0.0 3.2 0.00 0.15 0.15 65 1009.2
20260504031334 5 299 0.0 3.2 0.00 0.15 0.15 65 1009.1
20260504031134 5 299 0.0 0.0 0.00 0.15 0.15 64 1009.1
20260504030816 5 299 0.0 0.0 0.00 0.15 0.15 65 1009.1
20260504030610 5 299 0.0 0.0 0.00 0.15 0.15 65 1009.1
20260504030407 5 299 0.0 0.0 0.00 0.15 0.15 65 1009.1
20260504030157 5 299 0.0 0.0 0.00 0.15 0.15 65 1009.1
20260504025957 5 299 0.0 0.0 0.00 0.15 0.15 64 1009.1
20260504025758 5 299 0.0 0.0 0.00 0.15 0.15 65 1009.2
20260504025548 5 299 0.0 0.0 0.00 0.15 0.15 65 1009.1
20260504025340 5 299 0.0 0.0 0.00 0.15 0.15 65 1009.1
20260504025140 5 299 0.0 0.0 0.00 0.15 0.15 65 1009.1
20260504024932 5 299 0.0 0.0 0.00 0.15 0.15 65 1009.1
20260504024721 5 299 0.0 0.0 0.00 0.15 0.15 64 1009.0
20260504024518 5 299 0.0 0.0 0.00 0.15 0.15 64 1009.1
20260504024202 5 299 0.0 0.0 0.00 0.15 0.15 63 1009.1
20260504024001 5 299 0.0 0.0 0.00 0.15 0.15 63 1009.1
20260504023758 5 299 0.0 0.0 0.00 0.15 0.15 62 1009.1
20260504023441 5 299 0.0 0.0 0.00 0.15 0.15 62 1009.1
20260504023235 6 299 0.0 0.0 0.00 0.15 0.15 61 1009.1
20260504022918 6 299 0.0 0.0 0.00 0.15 0.15 61 1009.0
20260504022557 6 299 0.0 0.0 0.00 0.15 0.15 61 1009.0
20260504022357 6 299 0.0 0.0 0.00 0.15 0.15 61 1009.0